Погода в Кулебаках

Россия / Нижегородская область     55°25′46″N   42°30′44″E
темп.,
°C
ветер,
м/с
пор.,
м/с
влажн.,
%
обл.,
%
осадки,
мм/ч
давл.,
гПа
погр.,
м
12 апреля, пн
пн1200:00+1в2395100 0.0 103445
03:00+1всв2690100 0.0 103586
06:00+3в2119285 0.0 1035230
09:00+8в51272100 0.0 1035514
12:00+10в61160100 0.0 1035645
15:00+12в5855100 0.0 1034684
18:00+10в51170100 0.1 1033502
21:00+7вюв4129094 0.2 1033380
13 апреля, вт
вт1300:00+7вюв3109665 0.0 1032258
03:00+7вюв31095100 0.0 1031199
06:00+7юв31092100 0.0 1031196
09:00+14ююв4105885 0.0 1030418
12:00+18ю583563 0.0 10291172
15:00+20ю472880 0.0 10281879
18:00+17юв384412 0.0 1027198
21:00+12ююв3125966 0.0 1028246
14 апреля, ср
ср1400:00+10ююв3116788 0.0 1027202
03:00+8ююв277476 0.0 1027123
06:00+7юв287861 0.0 1026148
09:00+14ююв474917 0.0 1025418
12:00+18ююв46330 0.0 10241149
15:00+19ююв463041 0.0 10221556
18:00+16юв364583 0.0 1021144
21:00+11ююв376085 0.0 1021115
15 апреля, чт
чт1500:00+9ююв25675 0.0 102178
03:00+7ююв227318 0.0 102121
06:00+7ююв227677 0.0 102019
09:00+14юв235259 0.0 1020305
12:00+18юв223735 0.0 10191416
15:00+19юв1233100 0.0 10182012
18:00+16в2248100 0.0 101713
21:00+12в2262100 0.0 101813
16 апреля, пт
пт1600:00+10в227074 0.0 101814
03:00+8св237678 0.0 101850
06:00+7св278583 0.0 1019162
09:00+12св356748 0.0 1019479
12:00+16св455345 0.0 1020989
15:00+15св5654100 0.0 10211287
18:00+12св586697 0.0 1022838
21:00+8св4107524 0.0 1024673